星链-3936 (STARLINK-3936 )

导读

STARLINK-3936是美国SpaceX公司星链星座的一颗卫星,于2022年5月18日发射,属于星链第一代组网卫星,运行在近地轨道,主要为全球偏远、基础设施匮乏地区提供高速低延迟宽带互联网服务,单星配备氪离子推进器用于轨道维持和避碰,设计寿命约5年,采用星载相控阵天线实现通信传输,是SpaceX构建全球卫星互联网星座的重要组成部分。

基本信息
目录编号:
52674
目录名称:
STARLINK-3936
国际标识:
2022-053U
轨道中心:
EARTH
卫星名称:
星链-3936
卫星全名:
星链-3936 (STARLINK-3936 )
卫星状态:
在轨 (已飞行1491 天)
发射日期:
2022-05-18 UTC
国别 :
美国 (US)
星等 :
--
轨道信息
数据来源 国际轨道数据
星历时间: 2026-06-17T12:00:02+0800
9小时前
查看轨道信息
半长轴: 6790.204km
偏心率: 0.0001305
轨道倾角: 53.217°
近地点辐角 79.627°
升交点赤经 56.144°
平近点角 148.369°
近地点: 411.18km
远地点: 412.954km
周期: 92.808分钟
每日圈数: 15.515958
详细信息
固有亮度:
5
最大亮度:
2.5
卫星平台:
Starlink v1.5
覆盖范围:
全球
运营商:
太空探索技术公司
运营商所在国:
美国
制造商(研发单位):
太空探索技术公司
制造商所在国:
美国
使用方式:
暂无
卫星简介
星链(Starlink)计划是由太空探索技术公司(SpaceX)提出的一个巨型低轨卫星互联网星座项目,计划在2019年至2024年间在太空搭建由约1.2万颗卫星组成的“星链”网络,其中1584颗将部署在地球上空550千米处的近地轨道,并从2020年开始工作。该卫星仍在工作。
2D轨道图
3D轨道图
轨道高度分析图
轨道倾角分析图
轨道综合分析图
查看轨道综合分析图